Regional Weather Roundup
Issued by NWS

Home | Current Version | Previous Version | Text Only | Print | Product List | Glossary Off
Versions: 1 2 3 4 5 6 7 8 9 10 11 12 13 14 15 16 17 18 19 20 21 22 23 24 25 26 27

000
ASUS45 KSLC 220510
RWRUT

UTAH REGIONAL WEATHER ROUNDUP
NATIONAL WEATHER SERVICE SALT LAKE CITY UT
1000 PM MST TUE NOV 21 2017

UTZ001>011-023>025-220600-

NORTHERN UTAH

CITY           SKY/WX    TMP DP  RH WIND       PRES   REMARKS
BRIGHAM CITY   CLOUDY    46  40  78 CALM      30.38S
HILL AFB       CLOUDY    51  38  62 E8        30.38R
LOGAN          CLOUDY    48  43  82 CALM      30.37R
OGDEN          CLOUDY    50  39  66 S8        30.37R
SALT LAKE CITY MOCLDY    50  42  74 SE6       30.37R
TOOELE VALLEY  PTCLDY    43  39  87 S5        30.38R
WENDOVER       MOCLDY    43  35  73 E7        30.36S
HEBER CITY       N/A     34  32  93 CALM      30.41R
WEST JORDAN    MOCLDY    45  40  83 CALM      30.39S

$$

UTZ011>015-024>027-220600-

CENTRAL/NORTHEAST UTAH

CITY           SKY/WX    TMP DP  RH WIND       PRES   REMARKS
PROVO AIRPORT  MOCLDY    42  37  82 CALM      30.40R
MOAB/CANYONLAN CLOUDY    41  14  33 CALM      30.36F
DELTA          CLOUDY    45  27  49 CALM      30.40R
PRICE          PTCLDY    44  24  45 CALM      30.39R
RICHFIELD      CLEAR     37  36  93 CALM      30.45R
ROOSEVELT      CLOUDY    41  30  65 W3        30.39S
VERNAL         CLOUDY    46  32  58 NW3       30.37S

$$

UTZ013>016-019>022-027-220600-

SOUTHERN UTAH

CITY           SKY/WX    TMP DP  RH WIND       PRES   REMARKS
BRYCE CANYON   PTCLDY    33  28  81 W12       30.48R WCI  24
CEDAR CITY     CLEAR     40  32  73 E5        30.39R
MILFORD        CLOUDY    44  33  65 N3        30.40R
ST GEORGE      PTCLDY    49  13  23 CALM      30.31R
HANKSVILLE     PTCLDY    37  10  32 CALM      30.39S
KANAB          CLEAR     52  28  40 NE8       30.41R
BLANDING         N/A     39  28  65 N7        30.47S WCI  34

$$

REGIONAL REPORTS     COLORADO/ARIZONA

CITY           SKY/WX    TMP DP  RH WIND       PRES   REMARKS
CRAIG, CO      CLOUDY    34  30  85 CALM      30.45R
GRAND JUNCTION CLOUDY    44  25  47 SE3       30.41R
RIFLE, CO      CLOUDY    33  30  88 CALM      30.45R
MONTROSE, CO   CLOUDY    34  28  79 S5        30.45R WCI  30
CORTEZ, CO     CLOUDY    34  25  69 E8        30.41R WCI  27
COLORADO CITY    N/A     45  28  53 CALM      30.39R
PAGE, AZ       PTCLDY    49  17  28 SE3       30.35R
GRAND CANYON   PTCLDY    38  23  55 CALM      30.43R
KINGMAN, AZ    PTCLDY    52  18  26 E7        30.27S
FLAGSTAFF, AZ  PTCLDY    49  27  42 NE10      30.43R

$$

REGIONAL REPORTS    NEVADA/IDAHO/WYOMING

CITY           SKY/WX    TMP DP  RH WIND       PRES   REMARKS
LAS VEGAS, NV  MOCLDY    63  24  22 SW3       30.23R
ELY, NY        PTCLDY    38  31  76 S10       30.45R WCI  31
ELKO, NV       MOCLDY    45  40  82 NE5       30.38R
POCATELLO, ID  CLOUDY    43  42  97 NW5       30.36F
BURLEY, ID     MOCLDY    46  44  93 CALM      30.32R
FORT BRIDGER,    N/A     41  37  86 SW12      30.44F
EVANSTON, WY   CLOUDY    40  36  86 SW9       30.43S WCI  34
ROCK SPRINGS,  CLOUDY    41  34  76 W15       30.40S
KEMMERER, WY   CLOUDY    37  34  87 W5        30.42S WCI  34

$$




USA.gov is the U.S. government's official web portal to all federal, state and local government web resources and services.